Date,TemperatureHighF,TemperatureAvgF,TemperatureLowF,DewpointHighF,DewpointAvgF,DewpointLowF,HumidityHigh,HumidityAvg,HumidityLow,PressureMaxIn,PressureMinIn,WindSpeedMaxMPH,WindSpeedAvgMPH,GustSpeedMaxMPH,PrecipitationSumIn
2012-12-1,64,54,41,55,48,37,93,81,72,30.08,29.87,13,4,20,0.00
2012-12-2,60,57,51,56,54,50,98,91,80,30.00,29.87,12,3,19,0.00
2012-12-3,73,62,52,63,57,48,100,85,62,29.96,29.75,20,6,29,0.05
2012-12-4,60,51,42,49,38,31,91,63,36,30.28,29.94,6,2,10,0.05
2012-12-5,46,40,31,36,32,26,87,75,61,30.41,30.17,11,5,13,0.00
2012-12-6,50,43,36,43,37,32,95,81,70,30.16,29.92,8,3,9,0.12
2012-12-7,46,45,43,45,44,42,98,96,94,29.96,29.83,9,3,11,0.13
2012-12-8,42,39,37,42,38,36,98,93,85,30.04,29.84,11,4,14,0.00
2012-12-9,44,40,29,43,38,24,98,93,83,29.99,29.78,11,5,19,0.03
2012-12-10,29,26,23,24,21,-100,91,82,76,30.06,29.88,12,-7,16,0.00
2012-12-11,39,29,20,25,21,17,90,75,56,30.21,30.05,11,4,14,0.00
2012-12-12,48,36,27,29,24,21,81,66,38,30.32,30.21,13,4,19,0.00
2012-12-13,51,41,32,30,25,-100,76,57,40,30.28,30.13,14,-7,22,0.00
2012-12-14,54,44,35,37,30,24,80,59,43,30.19,29.94,11,4,18,0.01
2012-12-15,54,48,42,50,45,37,96,88,76,29.94,29.55,11,5,21,0.56
2012-12-16,50,42,38,45,38,34,88,85,82,29.77,29.64,12,2,15,0.00
2012-12-17,38,36,32,35,33,30,92,87,84,29.78,29.69,4,1,6,0.00
2012-12-18,55,39,30,40,33,28,97,83,54,29.92,29.58,17,5,29,0.00
2012-12-19,39,36,32,38,33,30,96,89,82,30.04,29.73,18,7,21,0.03
2012-12-20,30,23,21,29,17,-100,97,89,85,29.88,0.00,19,-42,34,0.00
2012-12-21,30,22,16,18,14,12,84,72,57,30.31,29.89,14,5,22,0.00
2012-12-22,36,25,12,26,18,10,91,77,55,30.32,29.96,7,2,10,0.00
2012-12-23,35,27,20,27,23,18,95,85,71,30.04,29.93,7,2,11,0.00
2012-12-24,30,24,20,28,22,15,96,89,81,30.17,29.87,8,3,16,0.00
2012-12-25,27,24,20,21,19,16,93,83,73,30.35,30.18,12,5,19,0.00
2012-12-26,30,26,22,24,22,19,88,84,80,30.20,30.07,14,4,19,0.00
2012-12-27,31,26,21,24,21,18,90,82,69,30.24,30.11,8,3,12,0.00
2012-12-28,33,30,28,29,27,24,91,87,83,30.10,29.92,7,2,10,0.00
2012-12-29,30,24,18,27,20,15,91,84,74,30.33,29.93,11,4,19,0.00
2012-12-30,39,30,18,28,23,15,90,75,61,30.41,30.15,12,4,18,0.00
2012-12-31,38,30,20,31,24,16,96,80,54,30.18,30.09,13,3,15,0.00